Location: Brunembert
(50.7122°N, 1.8935°E)
Time: 03:47:35
(UTC+00:00)

Meteor 2-17 Rocket - Pass Details

Date: 22 April 2021
Orbit: 936 x 955 km, 82.5° (Epoch: 06 May)

Event Time Altitude Azimuth Distance (km) Brightness Sun altitude
Rises 22:45:45 0° 348° (NNW) 3,636 8.9 -25.2°
Reaches altitude 10° 22:48:15 10° 347° (NNW) 2,689 7.9 -25.3°
Maximum altitude 22:54:24 77° 263° (W) 983 4.4 -25.6°
Enters shadow 22:55:34 59° 196° (SSW) 1,093 4.4 -25.6°
